Year,Month,Day,Hour,Minute,Value (Times are PST for insolation in W/m^2)
2008,11,01,00,00,0.00
2008,11,01,00,01,0.00
2008,11,01,00,02,0.00
2008,11,01,00,03,0.00
2008,11,01,00,04,0.00
2008,11,01,00,05,0.00
2008,11,01,00,06,0.00
2008,11,01,00,07,0.00
2008,11,01,00,08,0.00
2008,11,01,00,09,0.00
2008,11,01,00,10,0.00
2008,11,01,00,11,0.00
2008,11,01,00,12,0.00
2008,11,01,00,13,0.00
2008,11,01,00,14,0.00
2008,11,01,00,15,0.00
2008,11,01,00,16,0.00
2008,11,01,00,17,0.00
2008,11,01,00,18,0.00
2008,11,01,00,19,0.00
2008,11,01,00,20,0.00
2008,11,01,00,21,0.00
2008,11,01,00,22,0.00
2008,11,01,00,23,0.00
2008,11,01,00,24,0.00
2008,11,01,00,25,0.00
2008,11,01,00,26,0.00
2008,11,01,00,27,0.00
2008,11,01,00,28,0.00
2008,11,01,00,29,0.00
2008,11,01,00,30,0.00
2008,11,01,00,31,0.00
2008,11,01,00,32,0.00
2008,11,01,00,33,0.00
2008,11,01,00,34,0.00
2008,11,01,00,35,0.00
2008,11,01,00,36,0.00
2008,11,01,00,37,0.00
2008,11,01,00,38,0.00
2008,11,01,00,39,0.00
2008,11,01,00,40,0.00
2008,11,01,00,41,0.00
2008,11,01,00,42,0.00
2008,11,01,00,43,0.00
2008,11,01,00,44,0.00
2008,11,01,00,45,0.00
2008,11,01,00,46,0.00
2008,11,01,00,47,0.00
2008,11,01,00,48,0.00
2008,11,01,00,49,0.00
2008,11,01,00,50,0.00
2008,11,01,00,51,0.00
2008,11,01,00,52,0.00
2008,11,01,00,53,0.00
2008,11,01,00,54,0.00
2008,11,01,00,55,0.00
2008,11,01,00,56,0.00
2008,11,01,00,57,0.00
2008,11,01,00,58,0.00
2008,11,01,00,59,0.00
2008,11,01,01,00,0.00
2008,11,01,01,01,0.00
2008,11,01,01,02,0.00
2008,11,01,01,03,0.00
2008,11,01,01,04,0.00
2008,11,01,01,05,0.00
2008,11,01,01,06,0.00
2008,11,01,01,07,0.00
2008,11,01,01,08,0.00
2008,11,01,01,09,0.00
2008,11,01,01,10,0.00
2008,11,01,01,11,0.00
2008,11,01,01,12,0.00
2008,11,01,01,13,0.00
2008,11,01,01,14,0.00
2008,11,01,01,15,0.00
2008,11,01,01,16,0.00
2008,11,01,01,17,0.00
2008,11,01,01,18,0.00
2008,11,01,01,19,0.00
2008,11,01,01,20,0.00
2008,11,01,01,21,0.00
2008,11,01,01,22,0.00
2008,11,01,01,23,0.00
2008,11,01,01,24,0.00
2008,11,01,01,25,0.00
2008,11,01,01,26,0.00
2008,11,01,01,27,0.00
2008,11,01,01,28,0.00
2008,11,01,01,29,0.00
2008,11,01,01,30,0.00
2008,11,01,01,31,0.00
2008,11,01,01,32,0.00
2008,11,01,01,33,0.00
2008,11,01,01,34,0.00
2008,11,01,01,35,0.00
2008,11,01,01,36,0.00
2008,11,01,01,37,0.00
2008,11,01,01,38,0.00
2008,11,01,01,39,0.00
2008,11,01,01,40,0.00
2008,11,01,01,41,0.00
2008,11,01,01,42,0.00
2008,11,01,01,43,0.00
2008,11,01,01,44,0.00
2008,11,01,01,45,0.00
2008,11,01,01,46,0.00
2008,11,01,01,47,0.00
2008,11,01,01,48,0.00
2008,11,01,01,49,0.00
2008,11,01,01,50,0.00
2008,11,01,01,51,0.00
2008,11,01,01,52,0.00
2008,11,01,01,53,0.00
2008,11,01,01,54,0.00
2008,11,01,01,55,0.00
2008,11,01,01,56,0.00
2008,11,01,01,57,0.00
2008,11,01,01,58,0.00
2008,11,01,01,59,0.00
2008,11,01,02,00,0.00
2008,11,01,02,01,0.00
2008,11,01,02,02,0.00
2008,11,01,02,03,0.00
2008,11,01,02,04,0.00
2008,11,01,02,05,0.00
2008,11,01,02,06,0.00
2008,11,01,02,07,0.00
2008,11,01,02,08,0.00
2008,11,01,02,09,0.00
2008,11,01,02,10,0.00
2008,11,01,02,11,0.00
2008,11,01,02,12,0.00
2008,11,01,02,13,0.00
2008,11,01,02,14,0.00
2008,11,01,02,15,0.00
2008,11,01,02,16,0.00
2008,11,01,02,17,0.00
2008,11,01,02,18,0.00
2008,11,01,02,19,0.00
2008,11,01,02,20,0.00
2008,11,01,02,21,0.00
2008,11,01,02,22,0.00
2008,11,01,02,23,0.00
2008,11,01,02,24,0.00
2008,11,01,02,25,0.00
2008,11,01,02,26,0.00
2008,11,01,02,27,0.00
2008,11,01,02,28,0.00
2008,11,01,02,29,0.00
2008,11,01,02,30,0.00
2008,11,01,02,31,0.00
2008,11,01,02,32,0.00
2008,11,01,02,33,0.00
2008,11,01,02,34,0.00
2008,11,01,02,35,0.00
2008,11,01,02,36,0.00
2008,11,01,02,37,0.00
2008,11,01,02,38,0.00
2008,11,01,02,39,0.00
2008,11,01,02,40,0.00
2008,11,01,02,41,0.00
2008,11,01,02,42,0.00
2008,11,01,02,43,0.00
2008,11,01,02,44,0.00
2008,11,01,02,45,0.00
2008,11,01,02,46,0.00
2008,11,01,02,47,0.00
2008,11,01,02,48,0.00
2008,11,01,02,49,0.00
2008,11,01,02,50,0.00
2008,11,01,02,51,0.00
2008,11,01,02,52,0.00
2008,11,01,02,53,0.00
2008,11,01,02,54,0.00
2008,11,01,02,55,0.00
2008,11,01,02,56,0.00
2008,11,01,02,57,0.00
2008,11,01,02,58,0.00
2008,11,01,02,59,0.00
2008,11,01,03,00,0.00
2008,11,01,03,01,0.00
2008,11,01,03,02,0.00
2008,11,01,03,03,0.00
2008,11,01,03,04,0.00
2008,11,01,03,05,0.00
2008,11,01,03,06,0.00
2008,11,01,03,07,0.00
2008,11,01,03,08,0.00
2008,11,01,03,09,0.00
2008,11,01,03,10,0.00
2008,11,01,03,11,0.00
2008,11,01,03,12,0.00
2008,11,01,03,13,0.00
2008,11,01,03,14,0.00
2008,11,01,03,15,0.00
2008,11,01,03,16,0.00
2008,11,01,03,17,0.00
2008,11,01,03,18,0.00
2008,11,01,03,19,0.00
2008,11,01,03,20,0.00
2008,11,01,03,21,0.00
2008,11,01,03,22,0.00
2008,11,01,03,23,0.00
2008,11,01,03,24,0.00
2008,11,01,03,25,0.00
2008,11,01,03,26,0.00
2008,11,01,03,27,0.00
2008,11,01,03,28,0.00
2008,11,01,03,29,0.00
2008,11,01,03,30,0.00
2008,11,01,03,31,0.00
2008,11,01,03,32,0.00
2008,11,01,03,33,0.00
2008,11,01,03,34,0.00
2008,11,01,03,35,0.00
2008,11,01,03,36,0.00
2008,11,01,03,37,0.00
2008,11,01,03,38,0.00
2008,11,01,03,39,0.00
2008,11,01,03,40,0.00
2008,11,01,03,41,0.00
2008,11,01,03,42,0.00
2008,11,01,03,43,0.00
2008,11,01,03,44,0.00
2008,11,01,03,45,0.00
2008,11,01,03,46,0.00
2008,11,01,03,47,0.00
2008,11,01,03,48,0.00
2008,11,01,03,49,0.00
2008,11,01,03,50,0.00
2008,11,01,03,51,0.00
2008,11,01,03,52,0.00
2008,11,01,03,53,0.00
2008,11,01,03,54,0.00
2008,11,01,03,55,0.00
2008,11,01,03,56,0.00
2008,11,01,03,57,0.00
2008,11,01,03,58,0.00
2008,11,01,03,59,0.00
2008,11,01,04,00,0.00
2008,11,01,04,01,0.00
2008,11,01,04,02,0.00
2008,11,01,04,03,0.00
2008,11,01,04,04,0.00
2008,11,01,04,05,0.00
2008,11,01,04,06,0.00
2008,11,01,04,07,0.00
2008,11,01,04,08,0.00
2008,11,01,04,09,0.00
2008,11,01,04,10,0.00
2008,11,01,04,11,0.00
2008,11,01,04,12,0.00
2008,11,01,04,13,0.00
2008,11,01,04,14,0.00
2008,11,01,04,15,0.00
2008,11,01,04,16,0.00
2008,11,01,04,17,0.00
2008,11,01,04,18,0.00
2008,11,01,04,19,0.00
2008,11,01,04,20,0.00
2008,11,01,04,21,0.00
2008,11,01,04,22,0.00
2008,11,01,04,23,0.00
2008,11,01,04,24,0.00
2008,11,01,04,25,0.00
2008,11,01,04,26,0.00
2008,11,01,04,27,0.00
2008,11,01,04,28,0.00
2008,11,01,04,29,0.00
2008,11,01,04,30,0.00
2008,11,01,04,31,0.00
2008,11,01,04,32,0.00
2008,11,01,04,33,0.00
2008,11,01,04,34,0.00
2008,11,01,04,35,0.00
2008,11,01,04,36,0.00
2008,11,01,04,37,0.00
2008,11,01,04,38,0.00
2008,11,01,04,39,0.00
2008,11,01,04,40,0.00
2008,11,01,04,41,0.00
2008,11,01,04,42,0.00
2008,11,01,04,43,0.00
2008,11,01,04,44,0.00
2008,11,01,04,45,0.00
2008,11,01,04,46,0.00
2008,11,01,04,47,0.00
2008,11,01,04,48,0.00
2008,11,01,04,49,0.00
2008,11,01,04,50,0.00
2008,11,01,04,51,0.00
2008,11,01,04,52,0.00
2008,11,01,04,53,0.00
2008,11,01,04,54,0.00
2008,11,01,04,55,0.00
2008,11,01,04,56,0.00
2008,11,01,04,57,0.00
2008,11,01,04,58,0.00
2008,11,01,04,59,0.00
2008,11,01,05,00,0.00
2008,11,01,05,01,0.00
2008,11,01,05,02,0.00
2008,11,01,05,03,0.00
2008,11,01,05,04,0.00
2008,11,01,05,05,0.00
2008,11,01,05,06,0.00
2008,11,01,05,07,0.00
2008,11,01,05,08,0.00
2008,11,01,05,09,0.00
2008,11,01,05,10,0.00
2008,11,01,05,11,0.00
2008,11,01,05,12,0.00
2008,11,01,05,13,0.00
2008,11,01,05,14,0.00
2008,11,01,05,15,0.00
2008,11,01,05,16,0.00
2008,11,01,05,17,0.00
2008,11,01,05,18,0.00
2008,11,01,05,19,0.00
2008,11,01,05,20,0.00
2008,11,01,05,21,0.00
2008,11,01,05,22,0.00
2008,11,01,05,23,0.00
2008,11,01,05,24,0.00
2008,11,01,05,25,0.00
2008,11,01,05,26,0.00
2008,11,01,05,27,0.00
2008,11,01,05,28,0.00
2008,11,01,05,29,0.00
2008,11,01,05,30,0.00
2008,11,01,05,31,0.00
2008,11,01,05,32,0.00
2008,11,01,05,33,0.00
2008,11,01,05,34,0.00
2008,11,01,05,35,0.00
2008,11,01,05,36,0.00
2008,11,01,05,37,0.00
2008,11,01,05,38,0.00
2008,11,01,05,39,0.00
2008,11,01,05,40,0.00
2008,11,01,05,41,0.00
2008,11,01,05,42,0.00
2008,11,01,05,43,0.00
2008,11,01,05,44,0.00
2008,11,01,05,45,0.00
2008,11,01,05,46,0.00
2008,11,01,05,47,0.00
2008,11,01,05,48,0.00
2008,11,01,05,49,0.00
2008,11,01,05,50,0.00
2008,11,01,05,51,0.00
2008,11,01,05,52,0.00
2008,11,01,05,53,0.00
2008,11,01,05,54,0.00
2008,11,01,05,55,0.00
2008,11,01,05,56,0.00
2008,11,01,05,57,0.00
2008,11,01,05,58,0.00
2008,11,01,05,59,0.00
2008,11,01,06,00,0.00
2008,11,01,06,01,0.00
2008,11,01,06,02,0.00
2008,11,01,06,03,0.00
2008,11,01,06,04,0.00
2008,11,01,06,05,0.00
2008,11,01,06,06,0.00
2008,11,01,06,07,0.00
2008,11,01,06,08,0.00
2008,11,01,06,09,0.00
2008,11,01,06,10,0.00
2008,11,01,06,11,0.00
2008,11,01,06,12,0.00
2008,11,01,06,13,0.00
2008,11,01,06,14,0.00
2008,11,01,06,15,0.00
2008,11,01,06,16,0.00
2008,11,01,06,17,0.00
2008,11,01,06,18,0.00
2008,11,01,06,19,0.00
2008,11,01,06,20,0.00
2008,11,01,06,21,0.00
2008,11,01,06,22,0.00
2008,11,01,06,23,0.00
2008,11,01,06,24,0.00
2008,11,01,06,25,0.00
2008,11,01,06,26,0.00
2008,11,01,06,27,0.00
2008,11,01,06,28,0.00
2008,11,01,06,29,0.00
2008,11,01,06,30,0.00
2008,11,01,06,31,0.00
2008,11,01,06,32,0.00
2008,11,01,06,33,0.00
2008,11,01,06,34,0.00
2008,11,01,06,35,0.00
2008,11,01,06,36,0.00
2008,11,01,06,37,0.00
2008,11,01,06,38,0.00
2008,11,01,06,39,0.00
2008,11,01,06,40,0.00
2008,11,01,06,41,0.00
2008,11,01,06,42,0.00
2008,11,01,06,43,0.00
2008,11,01,06,44,0.00
2008,11,01,06,45,0.00
2008,11,01,06,46,0.00
2008,11,01,06,47,0.00
2008,11,01,06,48,0.00
2008,11,01,06,49,0.00
2008,11,01,06,50,0.00
2008,11,01,06,51,0.00
2008,11,01,06,52,0.00
2008,11,01,06,53,0.00
2008,11,01,06,54,0.00
2008,11,01,06,55,0.00
2008,11,01,06,56,0.00
2008,11,01,06,57,0.00
2008,11,01,06,58,0.00
2008,11,01,06,59,0.00
2008,11,01,07,00,0.00
2008,11,01,07,01,0.00
2008,11,01,07,02,0.00
2008,11,01,07,03,0.00
2008,11,01,07,04,0.00
2008,11,01,07,05,0.00
2008,11,01,07,06,0.00
2008,11,01,07,07,0.00
2008,11,01,07,08,0.00
2008,11,01,07,09,0.00
2008,11,01,07,10,0.00
2008,11,01,07,11,0.00
2008,11,01,07,12,0.00
2008,11,01,07,13,0.00
2008,11,01,07,14,0.00
2008,11,01,07,15,0.00
2008,11,01,07,16,0.00
2008,11,01,07,17,0.00
2008,11,01,07,18,0.00
2008,11,01,07,19,0.00
2008,11,01,07,20,0.00
2008,11,01,07,21,0.00
2008,11,01,07,22,0.00
2008,11,01,07,23,0.00
2008,11,01,07,24,0.00
2008,11,01,07,25,0.00
2008,11,01,07,26,0.00
2008,11,01,07,27,0.00
2008,11,01,07,28,0.00
2008,11,01,07,29,0.00
2008,11,01,07,30,0.00
2008,11,01,07,31,0.00
2008,11,01,07,32,0.00
2008,11,01,07,33,0.00
2008,11,01,07,34,0.00
2008,11,01,07,35,0.00
2008,11,01,07,36,0.00
2008,11,01,07,37,0.00
2008,11,01,07,38,0.00
2008,11,01,07,39,0.00
2008,11,01,07,40,0.00
2008,11,01,07,41,0.00
2008,11,01,07,42,0.00
2008,11,01,07,43,0.00
2008,11,01,07,44,0.00
2008,11,01,07,45,0.00
2008,11,01,07,46,0.00
2008,11,01,07,47,0.00
2008,11,01,07,48,0.00
2008,11,01,07,49,0.00
2008,11,01,07,50,0.00
2008,11,01,07,51,0.00
2008,11,01,07,52,0.00
2008,11,01,07,53,0.00
2008,11,01,07,54,0.00
2008,11,01,07,55,0.00
2008,11,01,07,56,0.00
2008,11,01,07,57,0.00
2008,11,01,07,58,0.00
2008,11,01,07,59,0.00
2008,11,01,08,00,0.00
2008,11,01,08,01,0.00
2008,11,01,08,02,0.00
2008,11,01,08,03,0.00
2008,11,01,08,04,0.00
2008,11,01,08,05,0.00
2008,11,01,08,06,0.00
2008,11,01,08,07,0.00
2008,11,01,08,08,0.00
2008,11,01,08,09,0.00
2008,11,01,08,10,0.00
2008,11,01,08,11,0.00
2008,11,01,08,12,0.00
2008,11,01,08,13,0.00
2008,11,01,08,14,0.00
2008,11,01,08,15,0.00
2008,11,01,08,16,0.00
2008,11,01,08,17,0.00
2008,11,01,08,18,0.00
2008,11,01,08,19,0.00
2008,11,01,08,20,2.80
2008,11,01,08,21,5.00
2008,11,01,08,22,5.00
2008,11,01,08,23,5.00
2008,11,01,08,24,5.00
2008,11,01,08,25,5.00
2008,11,01,08,26,5.00
2008,11,01,08,27,5.00
2008,11,01,08,28,5.00
2008,11,01,08,29,5.00
2008,11,01,08,30,5.00
2008,11,01,08,31,5.00
2008,11,01,08,32,5.00
2008,11,01,08,33,5.80
2008,11,01,08,34,7.00
2008,11,01,08,35,7.00
2008,11,01,08,36,7.00
2008,11,01,08,37,7.00
2008,11,01,08,38,9.00
2008,11,01,08,39,9.50
2008,11,01,08,40,11.40
2008,11,01,08,41,12.00
2008,11,01,08,42,12.00
2008,11,01,08,43,12.00
2008,11,01,08,44,13.80
2008,11,01,08,45,14.00
2008,11,01,08,46,14.00
2008,11,01,08,47,14.00
2008,11,01,08,48,14.00
2008,11,01,08,49,14.00
2008,11,01,08,50,12.40
2008,11,01,08,51,12.00
2008,11,01,08,52,12.00
2008,11,01,08,53,12.00
2008,11,01,08,54,12.80
2008,11,01,08,55,14.00
2008,11,01,08,56,14.00
2008,11,01,08,57,15.60
2008,11,01,08,58,16.00
2008,11,01,08,59,16.00
2008,11,01,09,00,16.50
2008,11,01,09,01,17.30
2008,11,01,09,02,16.00
2008,11,01,09,03,16.00
2008,11,01,09,04,16.00
2008,11,01,09,05,16.00
2008,11,01,09,06,16.00
2008,11,01,09,07,16.00
2008,11,01,09,08,16.00
2008,11,01,09,09,17.10
2008,11,01,09,10,18.60
2008,11,01,09,11,19.00
2008,11,01,09,12,20.80
2008,11,01,09,13,21.30
2008,11,01,09,14,23.00
2008,11,01,09,15,23.00
2008,11,01,09,16,22.00
2008,11,01,09,17,21.00
2008,11,01,09,18,21.00
2008,11,01,09,19,22.80
2008,11,01,09,20,23.00
2008,11,01,09,21,23.00
2008,11,01,09,22,23.00
2008,11,01,09,23,23.00
2008,11,01,09,24,21.70
2008,11,01,09,25,21.00
2008,11,01,09,26,21.00
2008,11,01,09,27,21.00
2008,11,01,09,28,21.00
2008,11,01,09,29,21.80
2008,11,01,09,30,24.10
2008,11,01,09,31,25.60
2008,11,01,09,32,27.60
2008,11,01,09,33,29.80
2008,11,01,09,34,30.00
2008,11,01,09,35,30.00
2008,11,01,09,36,30.00
2008,11,01,09,37,30.00
2008,11,01,09,38,30.00
2008,11,01,09,39,30.00
2008,11,01,09,40,28.20
2008,11,01,09,41,27.70
2008,11,01,09,42,25.70
2008,11,01,09,43,25.00
2008,11,01,09,44,25.00
2008,11,01,09,45,25.00
2008,11,01,09,46,25.00
2008,11,01,09,47,25.90
2008,11,01,09,48,26.00
2008,11,01,09,49,25.70
2008,11,01,09,50,25.00
2008,11,01,09,51,25.00
2008,11,01,09,52,23.70
2008,11,01,09,53,23.00
2008,11,01,09,54,23.00
2008,11,01,09,55,23.30
2008,11,01,09,56,25.80
2008,11,01,09,57,28.70
2008,11,01,09,58,32.50
2008,11,01,09,59,36.30
2008,11,01,10,00,38.60
2008,11,01,10,01,39.10
2008,11,01,10,02,40.00
2008,11,01,10,03,40.00
2008,11,01,10,04,40.00
2008,11,01,10,05,39.50
2008,11,01,10,06,39.70
2008,11,01,10,07,41.50
2008,11,01,10,08,43.80
2008,11,01,10,09,46.20
2008,11,01,10,10,47.00
2008,11,01,10,11,46.60
2008,11,01,10,12,43.90
2008,11,01,10,13,40.00
2008,11,01,10,14,35.80
2008,11,01,10,15,33.20
2008,11,01,10,16,33.00
2008,11,01,10,17,33.50
2008,11,01,10,18,36.50
2008,11,01,10,19,40.50
2008,11,01,10,20,44.50
2008,11,01,10,21,46.00
2008,11,01,10,22,47.00
2008,11,01,10,23,49.30
2008,11,01,10,24,51.00
2008,11,01,10,25,49.30
2008,11,01,10,26,45.50
2008,11,01,10,27,44.00
2008,11,01,10,28,42.50
2008,11,01,10,29,43.80
2008,11,01,10,30,44.30
2008,11,01,10,31,46.30
2008,11,01,10,32,47.80
2008,11,01,10,33,49.00
2008,11,01,10,34,49.00
2008,11,01,10,35,49.00
2008,11,01,10,36,47.20
2008,11,01,10,37,45.70
2008,11,01,10,38,42.80
2008,11,01,10,39,39.60
2008,11,01,10,40,37.00
2008,11,01,10,41,35.00
2008,11,01,10,42,35.00
2008,11,01,10,43,37.00
2008,11,01,10,44,40.60
2008,11,01,10,45,43.50
2008,11,01,10,46,41.20
2008,11,01,10,47,37.20
2008,11,01,10,48,33.60
2008,11,01,10,49,32.20
2008,11,01,10,50,32.00
2008,11,01,10,51,32.00
2008,11,01,10,52,32.00
2008,11,01,10,53,32.40
2008,11,01,10,54,34.10
2008,11,01,10,55,35.00
2008,11,01,10,56,35.00
2008,11,01,10,57,35.10
2008,11,01,10,58,37.50
2008,11,01,10,59,40.00
2008,11,01,11,00,40.00
2008,11,01,11,01,39.50
2008,11,01,11,02,39.70
2008,11,01,11,03,40.00
2008,11,01,11,04,41.90
2008,11,01,11,05,41.70
2008,11,01,11,06,40.00
2008,11,01,11,07,40.00
2008,11,01,11,08,39.50
2008,11,01,11,09,36.40
2008,11,01,11,10,32.60
2008,11,01,11,11,32.00
2008,11,01,11,12,32.00
2008,11,01,11,13,32.30
2008,11,01,11,14,33.00
2008,11,01,11,15,33.00
2008,11,01,11,16,34.30
2008,11,01,11,17,38.90
2008,11,01,11,18,46.80
2008,11,01,11,19,56.90
2008,11,01,11,20,62.30
2008,11,01,11,21,62.60
2008,11,01,11,22,62.50
2008,11,01,11,23,66.90
2008,11,01,11,24,75.30
2008,11,01,11,25,82.40
2008,11,01,11,26,83.60
2008,11,01,11,27,78.30
2008,11,01,11,28,69.90
2008,11,01,11,29,65.90
2008,11,01,11,30,65.00
2008,11,01,11,31,66.50
2008,11,01,11,32,66.80
2008,11,01,11,33,62.50
2008,11,01,11,34,59.50
2008,11,01,11,35,58.80
2008,11,01,11,36,60.00
2008,11,01,11,37,61.30
2008,11,01,11,38,62.00
2008,11,01,11,39,62.90
2008,11,01,11,40,65.60
2008,11,01,11,41,70.30
2008,11,01,11,42,76.00
2008,11,01,11,43,82.80
2008,11,01,11,44,89.40
2008,11,01,11,45,92.50
2008,11,01,11,46,94.90
2008,11,01,11,47,98.80
2008,11,01,11,48,102.60
2008,11,01,11,49,103.20
2008,11,01,11,50,98.50
2008,11,01,11,51,87.80
2008,11,01,11,52,76.50
2008,11,01,11,53,64.10
2008,11,01,11,54,55.20
2008,11,01,11,55,50.40
2008,11,01,11,56,48.20
2008,11,01,11,57,48.00
2008,11,01,11,58,50.30
2008,11,01,11,59,53.40
2008,11,01,12,00,57.60
2008,11,01,12,01,62.10
2008,11,01,12,02,63.00
2008,11,01,12,03,62.50
2008,11,01,12,04,62.00
2008,11,01,12,05,62.00
2008,11,01,12,06,62.80
2008,11,01,12,07,64.90
2008,11,01,12,08,67.30
2008,11,01,12,09,69.30
2008,11,01,12,10,71.70
2008,11,01,12,11,75.50
2008,11,01,12,12,79.60
2008,11,01,12,13,81.00
2008,11,01,12,14,80.90
2008,11,01,12,15,78.70
2008,11,01,12,16,76.20
2008,11,01,12,17,72.30
2008,11,01,12,18,67.40
2008,11,01,12,19,63.00
2008,11,01,12,20,59.00
2008,11,01,12,21,56.20
2008,11,01,12,22,58.60
2008,11,01,12,23,64.10
2008,11,01,12,24,69.00
2008,11,01,12,25,71.80
2008,11,01,12,26,72.60
2008,11,01,12,27,69.80
2008,11,01,12,28,63.30
2008,11,01,12,29,57.40
2008,11,01,12,30,54.00
2008,11,01,12,31,54.80
2008,11,01,12,32,56.00
2008,11,01,12,33,60.20
2008,11,01,12,34,64.40
2008,11,01,12,35,65.10
2008,11,01,12,36,67.80
2008,11,01,12,37,73.40
2008,11,01,12,38,77.80
2008,11,01,12,39,79.00
2008,11,01,12,40,81.70
2008,11,01,12,41,85.20
2008,11,01,12,42,86.00
2008,11,01,12,43,83.00
2008,11,01,12,44,84.80
2008,11,01,12,45,93.20
2008,11,01,12,46,100.20
2008,11,01,12,47,104.10
2008,11,01,12,48,106.50
2008,11,01,12,49,107.30
2008,11,01,12,50,114.30
2008,11,01,12,51,115.40
2008,11,01,12,52,112.70
2008,11,01,12,53,108.00
2008,11,01,12,54,100.20
2008,11,01,12,55,91.90
2008,11,01,12,56,83.30
2008,11,01,12,57,74.60
2008,11,01,12,58,65.20
2008,11,01,12,59,57.60
2008,11,01,13,00,52.30
2008,11,01,13,01,49.60
2008,11,01,13,02,47.50
2008,11,01,13,03,46.10
2008,11,01,13,04,43.70
2008,11,01,13,05,42.00
2008,11,01,13,06,42.80
2008,11,01,13,07,45.50
2008,11,01,13,08,51.50
2008,11,01,13,09,54.00
2008,11,01,13,10,75.20
2008,11,01,13,11,86.60
2008,11,01,13,12,90.00
2008,11,01,13,13,90.00
2008,11,01,13,14,91.60
2008,11,01,13,15,97.70
2008,11,01,13,16,100.00
2008,11,01,13,17,116.20
2008,11,01,13,18,119.70
2008,11,01,13,19,117.40
2008,11,01,13,20,115.20
2008,11,01,13,21,111.50
2008,11,01,13,22,107.70
2008,11,01,13,23,105.40
2008,11,01,13,24,103.90
2008,11,01,13,25,99.20
2008,11,01,13,26,93.50
2008,11,01,13,27,87.80
2008,11,01,13,28,80.30
2008,11,01,13,29,73.60
2008,11,01,13,30,68.10
2008,11,01,13,31,65.10
2008,11,01,13,32,63.00
2008,11,01,13,33,63.00
2008,11,01,13,34,62.60
2008,11,01,13,35,60.90
2008,11,01,13,36,57.30
2008,11,01,13,37,54.50
2008,11,01,13,38,54.20
2008,11,01,13,39,58.80
2008,11,01,13,40,64.80
2008,11,01,13,41,72.40
2008,11,01,13,42,76.50
2008,11,01,13,43,75.10
2008,11,01,13,44,70.10
2008,11,01,13,45,68.60
2008,11,01,13,46,60.00
2008,11,01,13,47,60.50
2008,11,01,13,48,62.40
2008,11,01,13,49,63.00
2008,11,01,13,50,61.20
2008,11,01,13,51,57.00
2008,11,01,13,52,57.80
2008,11,01,13,53,58.00
2008,11,01,13,54,57.50
2008,11,01,13,55,55.20
2008,11,01,13,56,53.50
2008,11,01,13,57,51.70
2008,11,01,13,58,49.50
2008,11,01,13,59,47.10
2008,11,01,14,00,49.30
2008,11,01,14,01,51.60
2008,11,01,14,02,52.20
2008,11,01,14,03,48.50
2008,11,01,14,04,42.40
2008,11,01,14,05,37.80
2008,11,01,14,06,37.00
2008,11,01,14,07,37.00
2008,11,01,14,08,36.50
2008,11,01,14,09,35.00
2008,11,01,14,10,33.90
2008,11,01,14,11,33.00
2008,11,01,14,12,32.20
2008,11,01,14,13,30.20
2008,11,01,14,14,30.00
2008,11,01,14,15,30.00
2008,11,01,14,16,29.20
2008,11,01,14,17,28.00
2008,11,01,14,18,29.30
2008,11,01,14,19,32.40
2008,11,01,14,20,34.90
2008,11,01,14,21,37.00
2008,11,01,14,22,36.40
2008,11,01,14,23,35.00
2008,11,01,14,24,34.00
2008,11,01,14,25,33.00
2008,11,01,14,26,32.20
2008,11,01,14,27,32.00
2008,11,01,14,28,30.00
2008,11,01,14,29,29.50
2008,11,01,14,30,28.00
2008,11,01,14,31,27.00
2008,11,01,14,32,26.00
2008,11,01,14,33,26.00
2008,11,01,14,34,26.10
2008,11,01,14,35,28.00
2008,11,01,14,36,28.00
2008,11,01,14,37,28.00
2008,11,01,14,38,28.00
2008,11,01,14,39,29.30
2008,11,01,14,40,30.00
2008,11,01,14,41,29.90
2008,11,01,14,42,27.70
2008,11,01,14,43,25.80
2008,11,01,14,44,25.00
2008,11,01,14,45,25.00
2008,11,01,14,46,25.00
2008,11,01,14,47,23.50
2008,11,01,14,48,23.00
2008,11,01,14,49,20.70
2008,11,01,14,50,19.00
2008,11,01,14,51,18.60
2008,11,01,14,52,18.00
2008,11,01,14,53,18.60
2008,11,01,14,54,20.60
2008,11,01,14,55,21.10
2008,11,01,14,56,22.70
2008,11,01,14,57,21.00
2008,11,01,14,58,20.20
2008,11,01,14,59,19.00
2008,11,01,15,00,19.00
2008,11,01,15,01,19.00
2008,11,01,15,02,20.80
2008,11,01,15,03,23.00
2008,11,01,15,04,23.00
2008,11,01,15,05,22.20
2008,11,01,15,06,22.00
2008,11,01,15,07,23.00
2008,11,01,15,08,23.00
2008,11,01,15,09,24.80
2008,11,01,15,10,25.00
2008,11,01,15,11,24.50
2008,11,01,15,12,23.00
2008,11,01,15,13,22.00
2008,11,01,15,14,19.70
2008,11,01,15,15,19.00
2008,11,01,15,16,21.00
2008,11,01,15,17,25.20
2008,11,01,15,18,27.20
2008,11,01,15,19,30.80
2008,11,01,15,20,32.00
2008,11,01,15,21,30.60
2008,11,01,15,22,27.00
2008,11,01,15,23,26.00
2008,11,01,15,24,20.70
2008,11,01,15,25,18.70
2008,11,01,15,26,18.00
2008,11,01,15,27,16.90
2008,11,01,15,28,16.00
2008,11,01,15,29,17.50
2008,11,01,15,30,20.70
2008,11,01,15,31,25.50
2008,11,01,15,32,29.50
2008,11,01,15,33,34.70
2008,11,01,15,34,38.70
2008,11,01,15,35,41.30
2008,11,01,15,36,42.00
2008,11,01,15,37,40.20
2008,11,01,15,38,39.80
2008,11,01,15,39,39.00
2008,11,01,15,40,38.20
2008,11,01,15,41,36.00
2008,11,01,15,42,35.00
2008,11,01,15,43,35.00
2008,11,01,15,44,35.00
2008,11,01,15,45,35.00
2008,11,01,15,46,34.40
2008,11,01,15,47,32.60
2008,11,01,15,48,32.00
2008,11,01,15,49,32.00
2008,11,01,15,50,32.80
2008,11,01,15,51,33.00
2008,11,01,15,52,33.30
2008,11,01,15,53,35.50
2008,11,01,15,54,37.00
2008,11,01,15,55,38.10
2008,11,01,15,56,36.40
2008,11,01,15,57,32.60
2008,11,01,15,58,26.20
2008,11,01,15,59,22.70
2008,11,01,16,00,20.40
2008,11,01,16,01,19.00
2008,11,01,16,02,19.00
2008,11,01,16,03,18.40
2008,11,01,16,04,18.00
2008,11,01,16,05,16.30
2008,11,01,16,06,18.10
2008,11,01,16,07,19.60
2008,11,01,16,08,21.00
2008,11,01,16,09,19.90
2008,11,01,16,10,17.20
2008,11,01,16,11,14.50
2008,11,01,16,12,12.20
2008,11,01,16,13,12.00
2008,11,01,16,14,12.00
2008,11,01,16,15,12.00
2008,11,01,16,16,12.00
2008,11,01,16,17,12.00
2008,11,01,16,18,11.20
2008,11,01,16,19,10.90
2008,11,01,16,20,9.00
2008,11,01,16,21,9.00
2008,11,01,16,22,9.00
2008,11,01,16,23,9.00
2008,11,01,16,24,9.00
2008,11,01,16,25,10.50
2008,11,01,16,26,11.00
2008,11,01,16,27,11.00
2008,11,01,16,28,11.00
2008,11,01,16,29,11.00
2008,11,01,16,30,11.00
2008,11,01,16,31,11.00
2008,11,01,16,32,9.50
2008,11,01,16,33,9.00
2008,11,01,16,34,9.00
2008,11,01,16,35,9.00
2008,11,01,16,36,9.00
2008,11,01,16,37,9.00
2008,11,01,16,38,9.00
2008,11,01,16,39,9.00
2008,11,01,16,40,9.00
2008,11,01,16,41,9.00
2008,11,01,16,42,9.00
2008,11,01,16,43,9.00
2008,11,01,16,44,9.00
2008,11,01,16,45,9.00
2008,11,01,16,46,9.00
2008,11,01,16,47,9.00
2008,11,01,16,48,9.00
2008,11,01,16,49,9.60
2008,11,01,16,50,11.00
2008,11,01,16,51,11.00
2008,11,01,16,52,9.60
2008,11,01,16,53,10.60
2008,11,01,16,54,11.00
2008,11,01,16,55,9.00
2008,11,01,16,56,9.00
2008,11,01,16,57,9.00
2008,11,01,16,58,9.00
2008,11,01,16,59,9.00
2008,11,01,17,00,9.00
2008,11,01,17,01,9.00
2008,11,01,17,02,9.00
2008,11,01,17,03,9.00
2008,11,01,17,04,9.00
2008,11,01,17,05,9.00
2008,11,01,17,06,9.00
2008,11,01,17,07,7.50
2008,11,01,17,08,7.00
2008,11,01,17,09,5.00
2008,11,01,17,10,5.00
2008,11,01,17,11,5.00
2008,11,01,17,12,5.00
2008,11,01,17,13,5.00
2008,11,01,17,14,5.00
2008,11,01,17,15,0.50
2008,11,01,17,16,0.00
2008,11,01,17,17,0.00
2008,11,01,17,18,0.00
2008,11,01,17,19,0.00
2008,11,01,17,20,0.00
2008,11,01,17,21,0.00
2008,11,01,17,22,0.00
2008,11,01,17,23,0.00
2008,11,01,17,24,0.00
2008,11,01,17,25,0.00
2008,11,01,17,26,0.00
2008,11,01,17,27,0.00
2008,11,01,17,28,0.00
2008,11,01,17,29,0.00
2008,11,01,17,30,0.00
2008,11,01,17,31,0.00
2008,11,01,17,32,0.00
2008,11,01,17,33,0.00
2008,11,01,17,34,0.00
2008,11,01,17,35,0.00
2008,11,01,17,36,0.00
2008,11,01,17,37,0.00
2008,11,01,17,38,0.00
2008,11,01,17,39,0.00
2008,11,01,17,40,0.00
2008,11,01,17,41,0.00
2008,11,01,17,42,0.00
2008,11,01,17,43,0.00
2008,11,01,17,44,0.00